Weather History for Del Rio, TX

Change the Weather History Date:

Saturday, November 30, 2013

  Actual Average Record
Temperature  
Mean Temperature 58 °F 55 °F  
Max Temperature 69 °F 67 °F 81 °F (1950)
Min Temperature 46 °F 44 °F 21 °F (1911)
Degree Days  
Heating Degree Days 7 10  
Month to date heating degree days 224 173  
Since 1 July heating degree days 233 197  
Cooling Degree Days 0 0  
Month to date cooling degree days 42 47  
Year to date cooling degree days 3741 3372  
Growing Degree Days 11 (Base 50)    
Moisture  
Dew Point 52 °F    
Average Humidity 77    
Maximum Humidity 100    
Minimum Humidity 53    
Precipitation  
Precipitation 0.00 in 0.02 in 0.91 in (1968)
Month to date precipitation 0.66 0.93  
Year to date precipitation 14.99 18.87  
Sea Level Pressure  
Sea Level Pressure 30.25 in    
Wind  
Wind Speed 8 mph (ESE)    
Max Wind Speed 16 mph    
Max Gust Speed 21 mph    
Visibility 7 miles    
Events Fog    
T = Trace of Precipitation, MM = Missing Value Source: NWS Daily Summary

Daily Weather History Graph

Daily Weather History Graph

Search for Another Location

Airport:

Trip Planner

Search our weather history database for the weather conditions in past years. The results will help you decide how hot, cold, wet, or windy it might be!

Date:

Astronomy

Nov. 30, 2013 Rise Set
Actual Time 7:20 AM CST 5:44 PM CST
Civil Twilight 6:54 AM CST 6:10 PM CST
Nautical Twilight 6:24 AM CST 6:39 PM CST
Astronomical Twilight 5:56 AM CST 7:08 PM CST
Moon 4:43 AM CST (11/30) 4:02 PM CST (11/30)
Length of Visible Light 11h 16m
Length of Day
10h 24m
Waning Crescent, 7% of the Moon is Illuminated
Nov 30
Waning Crescent
Dec 2
New
Dec 9
First Quarter
Dec 17
Full
Dec 25
Last Quarter

Hourly Weather History & Observations

Time (CST) Temp. Dew Point Humidity Pressure Visibility Wind Dir Wind Speed Gust Speed Precip Events Conditions
12:53 AM 48.0 °F 44.1 °F 86% 30.31 in 10.0 mi East 5.8 mph - N/A   Clear
1:53 AM 48.0 °F 45.0 °F 89% 30.29 in 10.0 mi East 6.9 mph - N/A   Clear
2:53 AM 48.0 °F 45.0 °F 89% 30.28 in 10.0 mi ESE 5.8 mph - N/A   Clear
3:53 AM 48.9 °F 46.9 °F 93% 30.27 in 8.0 mi ESE 4.6 mph - N/A   Overcast
4:10 AM 48.2 °F 48.2 °F 100% 30.29 in 9.0 mi SE 4.6 mph - N/A   Overcast
4:53 AM 53.1 °F 52.0 °F 96% 30.27 in 8.0 mi ESE 6.9 mph - N/A   Overcast
5:03 AM 53.6 °F 51.8 °F 94% 30.29 in 7.0 mi ESE 5.8 mph - N/A   Overcast
5:28 AM 53.6 °F 51.8 °F 94% 30.29 in 6.0 mi ESE 6.9 mph - N/A   Overcast
5:53 AM 54.0 °F 52.0 °F 93% 30.27 in 3.0 mi ESE 6.9 mph - N/A   Overcast
6:08 AM 53.6 °F 53.6 °F 100% 30.29 in 2.0 mi ESE 8.1 mph - N/A   Overcast
6:15 AM 53.6 °F 53.6 °F 100% 30.29 in 1.0 mi ESE 6.9 mph - N/A   Overcast
6:23 AM 53.6 °F 53.6 °F 100% 30.29 in 0.5 mi ESE 6.9 mph - N/A Fog Fog
6:53 AM 54.0 °F 53.1 °F 97% 30.28 in 0.2 mi SE 8.1 mph - N/A Fog Fog
7:53 AM 54.0 °F 53.1 °F 97% 30.29 in 0.2 mi SE 6.9 mph - N/A Fog Fog
8:25 AM 53.6 °F 53.6 °F 100% 30.31 in 1.0 mi ESE 6.9 mph - N/A   Overcast
8:36 AM 53.6 °F 53.6 °F 100% 30.31 in 2.0 mi SE 6.9 mph - N/A   Overcast
8:53 AM 54.0 °F 53.1 °F 97% 30.30 in 2.5 mi SE 8.1 mph - N/A   Overcast
8:56 AM 53.6 °F 53.6 °F 100% 30.32 in 3.0 mi SE 6.9 mph - N/A   Overcast
9:10 AM 53.6 °F 53.6 °F 100% 30.32 in 2.5 mi ESE 9.2 mph - N/A   Overcast
9:18 AM 53.6 °F 53.6 °F 100% 30.32 in 3.0 mi ESE 8.1 mph - N/A   Overcast
9:53 AM 54.0 °F 53.1 °F 97% 30.31 in 5.0 mi ESE 8.1 mph - N/A   Overcast
10:11 AM 55.4 °F 53.6 °F 94% 30.33 in 6.0 mi SE 6.9 mph - N/A   Overcast
10:53 AM 57.9 °F 53.1 °F 84% 30.30 in 9.0 mi ESE 8.1 mph - N/A   Overcast
11:09 AM 57.2 °F 53.6 °F 88% 30.31 in 10.0 mi SE 5.8 mph - N/A   Mostly Cloudy
11:46 AM 60.8 °F 53.6 °F 77% 30.29 in 10.0 mi SE 6.9 mph - N/A   Partly Cloudy
11:53 AM 62.1 °F 53.1 °F 72% 30.26 in 10.0 mi SE 9.2 mph - N/A   Partly Cloudy
12:53 PM 66.0 °F 52.0 °F 60% 30.22 in 10.0 mi SE 11.5 mph 18.4 mph N/A   Clear
1:53 PM 68.0 °F 52.0 °F 56% 30.19 in 10.0 mi SSE 13.8 mph 19.6 mph N/A   Partly Cloudy
2:53 PM 68.0 °F 52.0 °F 56% 30.16 in 10.0 mi SE 11.5 mph 17.3 mph N/A   Clear
3:53 PM 69.1 °F 52.0 °F 54% 30.14 in 10.0 mi SE 11.5 mph 17.3 mph N/A   Clear
4:53 PM 68.0 °F 53.1 °F 59% 30.14 in 10.0 mi SE 10.4 mph - N/A   Clear
5:53 PM 64.9 °F 53.1 °F 65% 30.15 in 10.0 mi ESE 8.1 mph - N/A   Clear
6:53 PM 63.0 °F 53.1 °F 70% 30.16 in 10.0 mi East 5.8 mph - N/A   Clear
7:53 PM 61.0 °F 53.1 °F 75% 30.18 in 10.0 mi East 5.8 mph - N/A   Clear
8:53 PM 57.9 °F 52.0 °F 81% 30.18 in 10.0 mi ESE 4.6 mph - N/A   Clear
9:53 PM 57.0 °F 53.1 °F 87% 30.18 in 10.0 mi ESE 5.8 mph - N/A   Clear
10:53 PM 55.0 °F 52.0 °F 89% 30.17 in 10.0 mi SSW 3.5 mph - N/A   Clear
11:53 PM 54.0 °F 52.0 °F 93% 30.15 in 10.0 mi East 4.6 mph - N/A   Clear